Weather History for Mississippi Canyon, LA

Change the Weather History Date:

Friday, January 31, 2014

  Actual Average Record
Temperature  
Mean Temperature 62 °F -  
Max Temperature 66 °F - - ()
Min Temperature 59 °F - - ()
Degree Days  
Heating Degree Days 2    
Growing Degree Days 12 (Base 50)    
Moisture  
Dew Point 52 °F    
Average Humidity 68    
Maximum Humidity 82    
Minimum Humidity 56    
Precipitation  
Precipitation 0.00 in - - ()
Sea Level Pressure  
Sea Level Pressure 30.12 in    
Wind  
Wind Speed 14 mph (SE)    
Max Wind Speed 17 mph    
Max Gust Speed 22 mph    
Visibility 10 miles    
Events      
T = Trace of Precipitation, MM = Missing Value Source: NWS Daily Summary

Daily Weather History Graph

Daily Weather History Graph

Search for Another Location

Airport:

Trip Planner

Search our weather history database for the weather conditions in past years. The results will help you decide how hot, cold, wet, or windy it might be!

Date:

Astronomy

Jan. 31, 2014 Rise Set
Actual Time 6:47 AM CST 5:37 PM CST
Civil Twilight 6:23 AM CST 6:02 PM CST
Nautical Twilight 5:54 AM CST 6:30 PM CST
Astronomical Twilight 5:26 AM CST 6:58 PM CST
Moon 7:05 AM CST (1/31) 6:51 PM CST (1/31)
Length of Visible Light 11h 39m
Length of Day
10h 50m
New Moon, 1% of the Moon is Illuminated
Jan 31
New Moon
Feb 6
First Quarter
Feb 14
Full
Feb 22
Last Quarter
Mar 1
New

Hourly Weather History & Observations

Time (CST) Temp. Dew Point Humidity Pressure Visibility Wind Dir Wind Speed Gust Speed Precip Events Conditions
12:15 AM 59.0 °F 48.2 °F 67% 30.13 in 10.0 mi SE 17.3 mph - N/A   Overcast
12:35 AM 59.0 °F 48.2 °F 67% 30.12 in 10.0 mi SE 17.3 mph - N/A   Overcast
12:55 AM 59.0 °F 48.2 °F 67% 30.12 in 10.0 mi SE 16.1 mph - N/A   Overcast
1:15 AM 59.0 °F 48.2 °F 67% 30.12 in 10.0 mi SE 16.1 mph - N/A   Overcast
1:35 AM 59.0 °F 48.2 °F 67% 30.11 in 10.0 mi SE 15.0 mph 21.9 mph N/A   Overcast
1:55 AM 60.8 °F 48.2 °F 63% 30.11 in 10.0 mi SSE 13.8 mph - N/A   Overcast
2:15 AM 60.8 °F 48.2 °F 63% 30.11 in 10.0 mi SSE 15.0 mph - N/A   Overcast
2:35 AM 60.8 °F 48.2 °F 63% 30.10 in 10.0 mi SSE 13.8 mph - N/A   Overcast
2:55 AM 60.8 °F 48.2 °F 63% 30.10 in 10.0 mi SSE 13.8 mph - N/A   Overcast
3:15 AM 60.8 °F 48.2 °F 63% 30.09 in 10.0 mi SSE 15.0 mph - N/A   Mostly Cloudy
3:35 AM 60.8 °F 50.0 °F 68% 30.09 in 10.0 mi SSE 15.0 mph - N/A   Partly Cloudy
3:55 AM 60.8 °F 50.0 °F 68% 30.10 in 10.0 mi SSE 12.7 mph - N/A   Scattered Clouds
4:15 AM 60.8 °F 48.2 °F 63% 30.10 in 10.0 mi SSE 12.7 mph - N/A   Scattered Clouds
4:35 AM 60.8 °F 50.0 °F 68% 30.11 in 10.0 mi SE 10.4 mph - N/A   Mostly Cloudy
4:55 AM 60.8 °F 50.0 °F 68% 30.12 in 10.0 mi SSE 13.8 mph - N/A   Mostly Cloudy
5:15 AM 60.8 °F 50.0 °F 68% 30.12 in 10.0 mi SSE 11.5 mph - N/A   Overcast
5:35 AM 60.8 °F 50.0 °F 68% 30.13 in 10.0 mi SSE 10.4 mph - N/A   Overcast
5:55 AM 62.6 °F 50.0 °F 63% 30.13 in 10.0 mi SE 10.4 mph - N/A   Overcast
6:15 AM 62.6 °F 50.0 °F 63% 30.13 in 10.0 mi SE 11.5 mph - N/A   Overcast
6:35 AM 62.6 °F 50.0 °F 63% 30.14 in 10.0 mi SSE 12.7 mph - N/A   Overcast
6:55 AM 62.6 °F 50.0 °F 63% 30.15 in 10.0 mi SSE 9.2 mph - N/A   Overcast
7:15 AM 62.6 °F 50.0 °F 63% 30.14 in 10.0 mi SE 10.4 mph - N/A   Overcast
7:35 AM 62.6 °F 51.8 °F 68% 30.15 in 10.0 mi SE 13.8 mph - N/A   Overcast
7:55 AM 62.6 °F 50.0 °F 63% 30.15 in 10.0 mi SE 13.8 mph - N/A   Mostly Cloudy
8:15 AM 64.4 °F 50.0 °F 59% 30.16 in 10.0 mi SE 13.8 mph 19.6 mph N/A   Overcast
8:35 AM 64.4 °F 50.0 °F 59% 30.16 in 10.0 mi SE 12.7 mph - N/A   Mostly Cloudy
8:55 AM 64.4 °F 51.8 °F 64% 30.17 in 10.0 mi SE 11.5 mph - N/A   Mostly Cloudy
9:15 AM 64.4 °F 51.8 °F 64% 30.18 in 10.0 mi SSE 11.5 mph - N/A   Overcast
9:35 AM 64.4 °F 51.8 °F 64% 30.18 in 10.0 mi SE 13.8 mph - N/A   Overcast
9:55 AM 64.4 °F 51.8 °F 64% 30.17 in 10.0 mi SSE 13.8 mph - N/A   Overcast
10:15 AM 64.4 °F 50.0 °F 59% 30.18 in 10.0 mi SSE 11.5 mph - N/A   Mostly Cloudy
10:35 AM 66.2 °F 51.8 °F 60% 30.18 in 10.0 mi South 10.4 mph - N/A   Partly Cloudy
10:55 AM 66.2 °F 51.8 °F 60% 30.17 in 10.0 mi SSE 9.2 mph - N/A   Clear
11:15 AM 64.4 °F 50.0 °F 59% 30.16 in 10.0 mi SE 6.9 mph - N/A   Partly Cloudy
11:35 AM 66.2 °F 50.0 °F 56% 30.15 in 10.0 mi SE 8.1 mph - N/A   Clear
11:55 AM 64.4 °F 51.8 °F 64% 30.14 in 10.0 mi SE 10.4 mph - N/A   Partly Cloudy
12:15 PM 64.4 °F 51.8 °F 64% 30.13 in 10.0 mi SSE 10.4 mph - N/A   Partly Cloudy
12:35 PM 64.4 °F 51.8 °F 64% 30.12 in 10.0 mi SE 11.5 mph - N/A   Scattered Clouds
12:55 PM 64.4 °F 51.8 °F 64% 30.10 in 10.0 mi SE 12.7 mph - N/A   Mostly Cloudy
1:15 PM 64.4 °F 51.8 °F 64% 30.10 in 10.0 mi ESE 11.5 mph - N/A   Scattered Clouds
1:35 PM 64.4 °F 53.6 °F 68% 30.09 in 10.0 mi SE 12.7 mph - N/A   Partly Cloudy
1:55 PM 64.4 °F 51.8 °F 64% 30.08 in 10.0 mi ESE 11.5 mph - N/A   Partly Cloudy
2:15 PM 62.6 °F 51.8 °F 68% 30.09 in 10.0 mi SE 11.5 mph - N/A   Clear
2:35 PM 62.6 °F 51.8 °F 68% 30.08 in 10.0 mi ESE 15.0 mph - N/A   Clear
2:55 PM 62.6 °F 51.8 °F 68% 30.07 in 10.0 mi ESE 13.8 mph - N/A   Clear
3:15 PM 62.6 °F 51.8 °F 68% 30.08 in 10.0 mi ESE 13.8 mph - N/A   Clear
3:35 PM 62.6 °F 51.8 °F 68% 30.08 in 10.0 mi ESE 13.8 mph - N/A   Clear
3:55 PM 62.6 °F 51.8 °F 68% 30.08 in 10.0 mi East 12.7 mph - N/A   Clear
4:15 PM 62.6 °F 51.8 °F 68% 30.09 in 10.0 mi ESE 12.7 mph - N/A   Clear
4:35 PM 62.6 °F 51.8 °F 68% 30.09 in 10.0 mi ESE 11.5 mph - N/A   Clear
4:55 PM 62.6 °F 51.8 °F 68% 30.09 in 10.0 mi East 11.5 mph - N/A   Partly Cloudy
5:15 PM 62.6 °F 51.8 °F 68% 30.09 in 10.0 mi East 12.7 mph - N/A   Scattered Clouds
5:35 PM 62.6 °F 51.8 °F 68% 30.10 in 10.0 mi ESE 10.4 mph - N/A   Partly Cloudy
5:55 PM 60.8 °F 53.6 °F 77% 30.10 in 10.0 mi ENE 13.8 mph - N/A   Partly Cloudy
6:15 PM 60.8 °F 55.4 °F 82% 30.10 in 10.0 mi ENE 12.7 mph - N/A   Clear
6:35 PM 60.8 °F 55.4 °F 82% 30.11 in - ENE 12.7 mph - N/A   Partly Cloudy
6:55 PM 60.8 °F 55.4 °F 82% 30.10 in 10.0 mi ENE 13.8 mph - N/A   Mostly Cloudy
7:15 PM 60.8 °F 55.4 °F 82% 30.11 in 10.0 mi ENE 13.8 mph - N/A   Mostly Cloudy
7:35 PM 60.8 °F 55.4 °F 82% 30.11 in 10.0 mi ENE 13.8 mph - N/A   Mostly Cloudy
7:55 PM 62.6 °F 57.2 °F 82% 30.10 in 10.0 mi East 16.1 mph - N/A   Scattered Clouds
8:15 PM 62.6 °F 57.2 °F 82% 30.10 in 10.0 mi East 12.7 mph - N/A   Scattered Clouds
8:35 PM 64.4 °F 57.2 °F 77% 30.10 in 10.0 mi ESE 15.0 mph - N/A   Scattered Clouds
8:55 PM 64.4 °F 57.2 °F 77% 30.10 in 10.0 mi ESE 15.0 mph - N/A   Scattered Clouds
9:15 PM 64.4 °F 57.2 °F 77% 30.10 in 10.0 mi ESE 13.8 mph - N/A   Mostly Cloudy
9:35 PM 66.2 °F 55.4 °F 68% 30.11 in 10.0 mi SE 13.8 mph - N/A   Overcast
9:55 PM 66.2 °F 57.2 °F 73% 30.11 in 10.0 mi SE 13.8 mph - N/A   Overcast
10:15 PM 66.2 °F 55.4 °F 68% 30.11 in 10.0 mi SE 10.4 mph - N/A   Overcast
10:35 PM 66.2 °F 57.2 °F 73% 30.10 in 10.0 mi SSE 12.7 mph - N/A   Mostly Cloudy
10:55 PM 66.2 °F 57.2 °F 73% 30.10 in 10.0 mi SE 10.4 mph - N/A   Scattered Clouds
11:15 PM 66.2 °F 57.2 °F 73% 30.09 in 10.0 mi SSE 9.2 mph - N/A   Scattered Clouds
11:35 PM 66.2 °F 57.2 °F 73% 30.09 in 10.0 mi SE 10.4 mph - N/A   Mostly Cloudy
11:55 PM 66.2 °F 57.2 °F 73% 30.09 in 10.0 mi SE 12.7 mph - N/A   Overcast